Location: Pitton
(51.0667°N, 1.7000°W)
Time: 01:37:33
(UTC+00:00)

Cosmos 2297 Rocket - Pass Details

Date: 17 September 2019
Orbit: 841 x 842 km, 71.0° (Epoch: 20 October)

Event Time Altitude Azimuth Distance (km) Brightness Sun altitude
Rises 21:11:04 0° 214° (SW) 3,388 5.3 -25.7°
Reaches altitude 10° 21:13:31 10° 217° (SW) 2,457 4.5 -26.0°
Maximum altitude 21:19:09 73° 302° (WNW) 884 2.3 -26.7°
Drops below altitude 10° 21:24:50 10° 27° (NNE) 2,472 4.8 -27.3°
Sets 21:27:18 0° 30° (NNE) 3,410 5.5 -27.6°
